IRS-P5 (CARTOSAT-1)

Last updated on Fri Oct 04 2024 00:02:24 GMT+0000 (Coordinated Universal Time)

1 28649U 05017A 24277.59150701 .00007294 00000+0 80318-3 0 9996 2 28649 97.6026 316.5727 0001279 50.9757 309.1574 14.87832368 51278
UTC large
Height (km)
Speed (km/s)
/
Latitude / Longitude
Inclination (degrees)
Orbital Period (minutes)
Azimuth
Elevation
Range (km)
Doppler Factor

Next 0 passes for location: London (51.5072 / 0.1276)

Sorry there are no passes over London.